Estación meteorológica de Calldetenes (Osona, Plana de Vic)

Consulta los datos en tiempo real de la estación meteorológica de Calldetenes





Hora UTC 10:35
Temperatura 19.1 ºC
Suelo 15 cm 20.4 ºC
Humedad 65.7 %
Presión 1012.6 hPa
Pluja 0.0 mm
Velocidad viento 4.0 km/h
Dirección viento NNE
Radiación solar 316.1 W/m²

Webcam

Datos diarios 2026-05-04



Hora UTC (invierno +1h; verano +2h)
Temperatura (ºC) Humedad (%) Presión (hPa) Velocidad viento (km/h) Precipitación (mm) Radiación solar (W/m²)
Hora UTC Aire Suelo 15 cm Humedad Presión Vel. Dir. Vel. Max Dir. Intent. máx 5 min. Rad. Sol.
00:05 13.0 13.0 93.7 1014.8 4.1 SSW 4.1 SSW 0.0 0.1
00:10 13.0 13.0 94.2 1014.8 3.1 SSW 5.6 SSW 0.0 0.1
00:15 13.0 13.1 94.4 1014.7 2.5 SW 4.9 SSW 0.0 0.1
00:20 13.0 13.1 94.5 1014.7 4.9 SW 7.1 WSW 0.0 0.1
00:25 13.0 13.0 94.7 1014.8 5.4 WSW 7.8 SW 0.0 0.1
00:30 12.9 13.0 95.3 1014.8 4.6 SW 6.4 SW 0.0 0.1
00:35 12.9 13.0 95.4 1014.8 4.8 SW 7.1 SSW 0.0 0.1
00:40 12.8 13.0 95.1 1014.8 4.6 SW 6.7 SW 0.0 0.1
00:45 12.8 13.0 94.9 1014.8 4.4 SW 6.0 SSW 0.0 0.1
00:50 12.8 12.9 94.9 1014.8 4.4 SW 6.0 SW 0.0 0.1
00:55 12.8 12.9 94.7 1014.8 4.5 SW 7.1 SW 0.0 0.1
01:00 12.8 12.9 94.7 1014.8 4.1 SW 6.4 SSW 0.0 0.1
01:05 12.9 12.9 94.9 1014.8 2.7 S 4.9 SSW 0.0 0.1
01:10 12.8 12.9 94.4 1014.8 1.1 ESE 3.2 SSE 0.0 0.1
01:15 12.7 12.8 94.8 1014.5 1.1 E 2.8 NE 0.0 0.1
01:20 12.6 12.6 95.1 1014.5 0.4 E 1.8 SE 0.0 0.1
01:25 12.5 12.5 95.7 1014.5 1.9 SE 3.2 SE 0.0 0.1
01:30 12.5 12.4 96.1 1014.5 1.6 ESE 2.8 SE 0.0 0.1
01:35 12.5 12.3 96.1 1014.4 1.5 ESE 2.8 ESE 0.0 0.1
01:40 12.5 12.3 96.2 1014.4 3.0 ESE 4.6 ESE 0.0 0.1
01:45 12.6 12.3 96.4 1014.4 3.7 ESE 5.3 ESE 0.0 0.1
01:50 12.5 12.3 96.3 1014.4 3.6 SE 5.6 ESE 0.0 0.1
01:55 12.5 12.3 96.7 1014.4 3.1 SE 4.6 SE 0.0 0.1
02:00 12.5 12.3 96.9 1014.4 2.2 SE 4.2 ESE 0.0 0.1
02:05 12.4 12.3 97.2 1014.3 3.7 ESE 4.9 SE 0.0 0.1
02:10 12.3 12.3 97.4 1014.3 2.3 ESE 3.9 ESE 0.0 0.1
02:15 12.3 12.2 97.7 1014.2 2.5 SE 3.9 SE 0.0 0.1
02:20 12.4 12.2 97.7 1014.2 2.0 SSE 4.2 SSE 0.0 0.1
02:25 12.3 12.2 97.3 1014.1 0.5 ESE 2.1 ESE 0.0 0.1
02:30 12.2 12.1 97.5 1014.1 0.0 E 1.1 E 0.0 0.1
02:35 12.1 12.0 97.6 1014.1 0.8 ENE 2.8 ENE 0.0 0.1
02:40 12.0 11.9 97.9 1014.1 3.1 ENE 3.5 ENE 0.0 0.1
02:45 12.1 11.9 98.4 1014.0 3.4 ESE 4.9 SE 0.0 0.1
02:50 12.3 12.0 98.0 1014.0 2.2 ESE 4.2 ESE 0.0 0.1
02:55 12.1 12.1 97.4 1014.0 3.4 SE 4.9 ESE 0.0 0.1
03:00 12.0 12.0 97.7 1014.0 3.1 SE 4.6 SE 0.0 0.1
03:05 12.0 12.0 98.0 1014.0 1.5 SE 3.2 SE 0.0 0.1
03:10 12.0 11.9 98.2 1014.0 0.6 SE 1.8 SE 0.0 0.1
03:15 12.0 11.9 98.4 1014.1 0.0 NNE 0.0 SE 0.0 0.1
03:20 12.1 12.0 98.4 1014.1 1.1 SW 3.5 SSW 0.0 0.1
03:25 12.1 12.0 98.5 1014.1 0.6 SSW 2.5 SW 0.0 0.1
03:30 12.1 12.0 98.3 1014.1 2.9 E 4.9 ENE 0.0 0.1
03:35 12.1 12.0 98.0 1013.9 3.2 E 4.2 ENE 0.0 0.1
03:40 12.1 12.0 97.9 1013.9 1.1 E 3.5 E 0.0 0.1
03:45 12.1 12.0 97.9 1013.8 1.0 ESE 2.8 ENE 0.0 0.1
03:50 12.2 12.0 97.9 1013.8 1.7 SSE 3.2 SSE 0.0 0.1
03:55 12.3 12.1 97.5 1013.8 0.7 SW 2.5 WSW 0.0 0.1
04:00 12.3 12.1 97.6 1013.8 2.4 SW 3.2 WSW 0.0 0.1
04:05 12.4 12.3 97.5 1013.9 2.2 WSW 3.9 W 0.0 0.1
04:10 12.4 12.4 97.2 1013.9 2.7 WNW 4.2 NW 0.0 0.1
04:15 12.5 12.5 96.9 1013.8 3.2 WSW 5.3 WSW 0.0 0.1
04:20 12.5 12.5 96.7 1013.8 0.6 SW 1.8 NW 0.0 0.1
04:25 12.4 12.4 96.5 1013.7 0.6 NE 1.8 ENE 0.0 0.1
04:30 12.4 12.3 96.9 1013.7 2.3 SE 3.9 ESE 0.0 0.1
04:35 12.4 12.2 96.8 1013.7 1.9 SSW 3.2 S 0.0 0.4
04:40 12.4 12.3 96.8 1013.7 2.4 SSW 4.2 SSW 0.0 0.8
04:45 12.4 12.3 96.5 1013.7 0.4 NW 1.8 W 0.0 1.7
04:50 12.3 12.2 96.6 1013.7 1.1 S 3.9 SSW 0.0 2.7
04:55 12.3 12.1 96.5 1013.7 1.3 WSW 3.9 SSE 0.0 3.3
05:00 12.3 12.1 96.8 1013.7 1.0 NW 3.2 NNW 0.0 4.5
05:05 12.3 12.2 97.1 1013.8 1.0 SSW 2.5 SSW 0.0 6.3
05:10 12.4 12.3 97.1 1013.8 0.3 WSW 1.8 WSW 0.0 7.2
05:15 12.4 12.4 97.0 1013.8 1.3 NE 3.2 N 0.0 9.2
05:20 12.3 12.4 97.1 1013.8 1.6 NE 3.2 ENE 0.0 11.8
05:25 12.3 12.3 97.6 1013.7 1.3 ENE 2.5 ENE 0.0 24.3
05:30 12.3 12.3 97.7 1013.7 1.7 E 2.8 E 0.0 46.1
05:35 12.5 12.4 97.8 1013.7 0.7 ESE 3.2 ESE 0.0 70.0
05:40 12.6 12.6 97.8 1013.7 1.5 SSE 3.5 S 0.0 76.6
05:45 12.7 12.9 97.2 1013.7 1.5 S 3.2 S 0.0 63.3
05:50 12.8 13.1 96.8 1013.7 3.0 S 5.6 S 0.0 34.8
05:55 12.8 13.2 96.1 1013.7 3.0 S 5.3 S 0.0 39.1
06:00 12.8 13.2 95.7 1013.7 3.0 SSW 4.6 SSW 0.0 57.8
06:05 12.8 13.2 95.4 1013.7 2.5 S 4.6 SSW 0.0 80.0
06:10 12.9 13.3 95.0 1013.7 2.4 S 3.9 SSE 0.0 90.4
06:15 13.2 13.5 95.0 1013.9 2.3 S 4.2 S 0.0 118.1
06:20 13.3 13.8 93.1 1013.9 2.0 S 3.2 S 0.0 111.9
06:25 13.2 13.9 92.7 1013.9 0.5 SE 3.2 SE 0.0 63.4
06:30 13.3 13.9 92.9 1013.9 1.9 ESE 4.9 E 0.0 81.4
06:35 13.5 13.9 93.4 1013.9 1.7 E 4.6 E 0.0 88.1
06:40 13.5 13.9 92.9 1013.9 1.2 ENE 3.2 E 0.0 86.9
06:45 13.4 13.8 92.5 1013.9 2.5 NE 3.5 NNE 0.0 125.7
06:50 13.4 13.8 92.5 1013.9 1.8 ENE 3.5 NE 0.0 128.5
06:55 13.5 13.8 92.1 1013.8 1.8 SE 3.9 ESE 0.0 119.9
07:00 13.7 13.9 91.5 1013.8 2.9 SE 4.2 ESE 0.0 159.6
07:05 14.0 14.2 90.4 1013.8 2.6 E 4.9 ENE 0.0 206.0
07:10 14.4 14.5 89.6 1013.8 2.9 E 5.3 E 0.0 276.0
07:15 14.5 14.9 87.8 1013.7 2.2 E 5.3 ENE 0.0 251.2
07:20 14.6 15.0 85.3 1013.7 1.2 WNW 2.8 WNW 0.0 432.0
07:25 14.8 15.1 84.2 1013.8 1.0 NE 3.2 SSW 0.0 439.7
07:30 14.8 15.0 83.7 1013.8 3.3 NNE 8.8 N 0.0 420.4
07:35 14.9 14.8 83.7 1013.7 5.4 NNE 8.1 N 0.0 435.8
07:40 14.8 14.6 82.6 1013.7 2.6 NW 7.1 NNW 0.0 435.2
07:45 14.8 14.4 82.4 1013.7 2.2 N 5.3 NNE 0.0 458.1
07:50 14.8 14.3 82.4 1013.7 3.3 NNE 7.4 N 0.0 474.3
07:55 15.0 14.3 83.1 1013.6 4.2 NNE 7.8 N 0.0 479.9
08:00 15.1 14.3 82.6 1013.6 4.2 NNE 6.4 NNE 0.0 495.8
08:05 15.3 14.4 81.9 1013.5 4.7 NNW 9.2 NW 0.0 525.7
08:10 15.4 14.5 80.0 1013.5 3.8 WNW 7.4 NNW 0.0 568.6
08:15 15.6 14.7 79.7 1013.4 4.0 NW 9.5 W 0.0 639.5
08:20 15.9 15.1 79.3 1013.4 4.2 N 7.8 N 0.0 725.6
08:25 16.3 15.8 76.9 1013.2 4.4 N 8.1 NE 0.0 438.0
08:30 16.4 16.4 77.0 1013.2 4.3 NE 9.2 ENE 0.0 330.2
08:35 16.5 16.7 77.2 1013.2 6.5 N 11.3 NNE 0.0 364.6
08:40 16.7 16.9 76.3 1013.2 4.6 NNE 8.1 NE 0.0 384.4
08:45 16.8 17.2 75.9 1013.3 3.1 NW 6.7 NW 0.0 646.3
08:50 17.0 17.5 75.6 1013.3 5.8 NNW 11.3 NNW 0.0 503.0
08:55 17.1 17.8 75.4 1013.2 5.4 NNE 10.2 N 0.0 657.8
09:00 17.1 17.8 74.6 1013.2 4.3 NNW 9.9 NW 0.0 624.4
09:05 17.1 17.6 72.2 1013.0 6.6 W 10.9 NW 0.0 679.3
09:10 17.3 17.6 70.8 1013.0 3.2 S 5.6 SSW 0.0 576.3
09:15 17.6 18.2 69.9 1013.0 2.0 SSE 6.4 NNE 0.0 484.3
09:20 18.1 19.1 70.2 1013.0 4.0 NE 6.7 N 0.0 425.4
09:25 18.4 19.7 67.5 1013.0 2.5 WSW 8.5 WSW 0.0 425.1
09:30 18.6 20.2 66.1 1013.0 4.5 WSW 7.8 SW 0.0 442.5
09:35 18.7 20.7 65.8 1013.0 4.5 SSW 9.5 SSW 0.0 532.8
09:40 18.9 21.1 66.2 1013.0 6.8 SW 12.7 SSW 0.0 758.7
09:45 19.8 21.7 63.0 1013.0 3.6 WSW 12.4 WNW 0.0 672.3
09:50 19.8 22.2 63.7 1013.0 2.6 NW 7.1 W 0.0 646.4
09:55 19.8 22.6 62.8 1012.9 3.4 WSW 8.8 SW 0.0 481.9
10:00 19.8 22.7 63.2 1012.9 4.5 SW 7.4 SW 0.0 475.9
10:05 19.1 22.6 64.4 1012.8 5.5 SSW 8.8 WSW 0.0 509.3
10:10 19.2 22.5 65.6 1012.8 6.1 NW 9.2 WSW 0.0 364.7
10:15 19.3 22.1 65.3 1012.8 2.9 N 8.8 NW 0.0 281.0
10:20 19.6 21.6 64.3 1012.8 4.0 W 6.7 WSW 0.0 232.2
10:25 19.5 21.2 62.2 1012.7 2.0 SE 6.0 WSW 0.0 227.4
10:30 19.4 20.8 64.3 1012.7 2.9 ENE 4.9 ENE 0.0 207.7
10:35 19.1 20.4 65.7 1012.6 4.0 NNE 6.4 NNE 0.0 316.1
Máxima 19.8 22.7 98.5 1014.8 6.8 SW 12.7 SSW 0.0 758.7
Mínima 12.0 11.9 62.2 1012.6
Total 0.0